Hourly Weather Roundup
Issued by NWS Central Illinois

Home | Current Version | Previous Version | Text Only | Print | Product List | Glossary On
Versions: 1 2 3 4 5 6 7 8 9 10 11 12 13 14 15 16 17 18 19 20 21 22 23 24 25 26 27 28 29 30 31 32 33 34 35 36 37 38 39 40 41 42 43 44 45 46 47 48 49 50
000
NZUS43 KILX 221810
HWRILX

AREA WEATHER ROUNDUP
NATIONAL WEATHER SERVICE, LINCOLN IL
100 PM CDT FRI MAY 22 2015


CITY           SKY/WX    TMP DP  RH WIND       PRES   REMARKS
BLOOMINGTON    SUNNY     75  41  29 NW9       30.23R
6HR MIN TEMP:  54; 6HR MAX TEMP:  75;

CHAMPAIGN      SUNNY     76  41  28 N8        30.21S
6HR MIN TEMP:  52; 6HR MAX TEMP:  77;

DANVILLE       SUNNY     72  44  36 NW7       30.19R
6HR MIN TEMP:  52; 6HR MAX TEMP:  73;

DECATUR        SUNNY     75  42  30 W5        30.22S
6HR MIN TEMP:  55; 6HR MAX TEMP:  76;

EFFINGHAM      SUNNY     72  45  38 S5        30.26S
FLORA          SUNNY     71  50  46 NW5       30.25F
6HR MIN TEMP:  50; 6HR MAX TEMP:  71;

GALESBURG      SUNNY     75  39  27 W10       30.22S
JACKSONVILLE   PTSUNNY   76  39  26 SW3       30.23S
6HR MIN TEMP:  57; 6HR MAX TEMP:  77;

LACON          SUNNY     73  38  27 N5        30.21R
6HR MIN TEMP:  54; 6HR MAX TEMP:  74;

LAWRENCEVILLE  SUNNY     73  52  47 W14       30.25R
6HR MIN TEMP:  52; 6HR MAX TEMP:  73;

LITCHFIELD     MOSUNNY   72  48  43 CALM      30.24S
$$


CITY           SKY/WX    TMP DP  RH WIND       PRES   REMARKS
LINCOLN        SUNNY     77  39  25 CALM      30.20R
6HR MIN TEMP:  56; 6HR MAX TEMP:  77;

MACOMB         MOSUNNY   75  40  28 SW9       30.24S
MATTOON        SUNNY     75  41  29 VRB5      30.22R
6HR MIN TEMP:  54; 6HR MAX TEMP:  75;

MT CARMEL AP   SUNNY     73  43  33 W13       30.25S
OLNEY-NOBLE AP SUNNY     70  52  52 SW6       30.25S
PARIS          SUNNY     75  40  28 CALM      30.22R
6HR MIN TEMP:  53; 6HR MAX TEMP:  76;

PEORIA         SUNNY     77  40  26 N3        30.21S
6HR MIN TEMP:  55; 6HR MAX TEMP:  77;

PONTIAC        SUNNY     75  40  28 NW7       30.22R
RANTOUL        SUNNY     76  42  29 N5        30.21R
6HR MIN TEMP:  55; 6HR MAX TEMP:  76;

ROBINSON       SUNNY     71  48  43 SW10      30.25S
6HR MIN TEMP:  53; 6HR MAX TEMP:  71;

SPRINGFIELD    SUNNY     77  42  28 W5        30.22F
6HR MIN TEMP:  54; 6HR MAX TEMP:  77;

TAYLORVILLE    SUNNY     73  43  33 W7        30.23F
$$

...REGIONAL REPORTS...


CITY           SKY/WX    TMP DP  RH WIND       PRES   REMARKS
CHICAGO O`HARE SUNNY     64  31  28 E9        30.24R
KANKAKEE       SUNNY     72  42  34 NW10      30.22R
MOLINE         SUNNY     75  39  27 VRB5      30.20S
MOUNT VERNON   SUNNY     73  52  46 SW12      30.26F
PITTSFIELD     CLOUDY    73  42  33 CALM      30.25S
QUINCY         CLOUDY    73  43  33 W6        30.23S
ROCKFORD       MOSUNNY   71  38  29 VRB3      30.24S
$$


CITY           SKY/WX    TMP DP  RH WIND       PRES   REMARKS
BURLINGTON     MOSUNNY   74  43  32 S6        30.21F
CEDAR RAPIDS   SUNNY     74  38  27 NW8       30.21S
DES MOINES     CLOUDY    74  37  26 W3        30.22F
KIRKSVILLE     CLOUDY    71  50  47 CALM      30.25S
OTTUMWA        PTSUNNY   73  39  29 VRB5      30.22F
ST LOUIS       PTSUNNY   75  51  43 S3        30.25S
$$


CITY           SKY/WX    TMP DP  RH WIND       PRES   REMARKS
TERRE HAUTE    SUNNY     71  49  45 SW6       30.23R
EVANSVILLE     SUNNY     71  49  45 W8        30.27S
INDIANAPOLIS   MOSUNNY   71  48  43 W12       30.20S
LAFAYETTE      MOSUNNY   71  50  47 CALM      30.20S
MADISON        SUNNY     67  32  27 S7        30.23S
MILWAUKEE      SUNNY     55  32  41 NE8       30.27S
$$




USA.gov is the U.S. government's official web portal to all federal, state and local government web resources and services.